Location: Newark
(30.0000°S, 28.7500°E)
Time: 04:31:59
(UTC+00:00)

X-37B - Visible Passes

Search period start: 29 September 2020 00:00
Search period end: 09 October 2020 00:00
Orbit: 386 x 387 km, 45.0° (Epoch: 18 September)

Date Brightness Start Highest point End Pass type
(mag) Time Alt. Az. Time Alt. Az. Time Alt. Az.
04 Oct 3.3 02:32:08 10° N 02:34:08 15° NE 02:36:07 10° E visible
05 Oct 0.7 03:08:43 10° NW 03:11:55 84° NE 03:15:09 10° SE visible
06 Oct 1.9 02:12:35 29° N 02:13:25 34° NE 02:16:23 10° ESE visible
07 Oct 4.1 01:16:57 10° E 01:16:57 10° E 01:16:59 10° E visible
07 Oct 1.3 02:49:14 17° W 02:51:23 42° SSW 02:54:29 10° SE visible
08 Oct 1.4 01:53:28 52° ESE 01:53:28 52° ESE 01:56:01 10° SE visible
